Tracking 25710 objects as of 6-Jul-2022
HD Live streaming from Space Station
objects crossing your sky now

LEMUR 2 KAREN_B

Track LEMUR 2 KAREN_B now!
10-day predictions
LEMUR 2 KAREN_B is classified as:


NORAD ID: 52736
Int'l Code: 2022-057E
Perigee: 530.2 km
Apogee: 543.1 km
Inclination: 97.5 °
Period: 95.2 minutes
Semi major axis: 6907 km
RCS: Unknown
Launch date: May 25, 2022
Source: United States (US)
Launch site: AIR FORCE EASTERN TEST RANGE (AFETR)
aabbcc
Your satellite tracking list
Your tracking list is empty




NASA's NSSDC Master Catalog

Two Line Element Set (TLE):
1 52736U 22057E   22186.84961032  .00006262  00000-0  36609-3 0  9994
2 52736  97.5105 301.1833 0009402 112.9027 247.3197 15.12194693  6211
Source of the keplerian elements: AFSPC